| time (UTC) | temp C | wind direction | speed KPH | gust KPH | rain 1hr cm | rain 24hr cm | rain mn cm | humidity % | barometer mb |
| 20260509000659 | 15 | 251 | 0.0 | 0.0 | 0.00 | 0.00 | 0.00 | 52 | 1007.1 |
| 20260509000155 | 16 | 251 | 0.0 | 1.6 | 0.00 | 0.00 | 0.00 | 50 | 1006.9 |
| 20260508235652 | 16 | 251 | 0.0 | 0.0 | 0.00 | 0.00 | 0.00 | 48 | 1006.8 |
| 20260508235149 | 16 | 320 | 1.6 | 3.2 | 0.00 | 0.00 | 0.00 | 45 | 1007.0 |
| 20260508234646 | 16 | 290 | 1.6 | 1.6 | 0.00 | 0.00 | 0.00 | 40 | 1007.0 |
| 20260508234143 | 16 | 305 | 3.2 | 3.2 | 0.00 | 0.00 | 0.00 | 41 | 1006.9 |
| 20260508233642 | 17 | 259 | 0.0 | 0.0 | 0.00 | 0.00 | 0.00 | 45 | 1006.9 |
| 20260508233140 | 17 | 266 | 0.0 | 1.6 | 0.00 | 0.00 | 0.00 | 42 | 1007.0 |
| 20260508232637 | 17 | 290 | 1.6 | 3.2 | 0.00 | 0.00 | 0.00 | 41 | 1007.0 |
| 20260508232133 | 17 | 289 | 1.6 | 3.2 | 0.00 | 0.00 | 0.00 | 40 | 1007.0 |
| 20260508231631 | 17 | 270 | 1.6 | 3.2 | 0.00 | 0.00 | 0.00 | 41 | 1006.9 |
| 20260508231128 | 17 | 313 | 1.6 | 3.2 | 0.00 | 0.00 | 0.00 | 41 | 1006.8 |
| 20260508230624 | 17 | 352 | 1.6 | 3.2 | 0.00 | 0.00 | 0.00 | 43 | 1006.8 |
| 20260508230121 | 18 | 241 | 1.6 | 1.6 | 0.00 | 0.00 | 0.00 | 41 | 1006.9 |
| 20260508225619 | 18 | 244 | 1.6 | 1.6 | 0.00 | 0.00 | 0.00 | 42 | 1007.0 |
| 20260508225115 | 18 | 289 | 0.0 | 1.6 | 0.00 | 0.00 | 0.00 | 39 | 1007.0 |
| 20260508224613 | 18 | 257 | 1.6 | 3.2 | 0.00 | 0.00 | 0.00 | 40 | 1007.0 |
| 20260508224110 | 18 | 263 | 0.0 | 3.2 | 0.00 | 0.00 | 0.00 | 37 | 1007.0 |
| 20260508223608 | 18 | 288 | 0.0 | 1.6 | 0.00 | 0.00 | 0.00 | 39 | 1006.7 |
| 20260508223105 | 18 | 215 | 1.6 | 1.6 | 0.00 | 0.00 | 0.00 | 38 | 1006.8 |
| 20260508222602 | 18 | 316 | 1.6 | 3.2 | 0.00 | 0.00 | 0.00 | 40 | 1007.1 |
| 20260508222059 | 18 | 347 | 4.8 | 8.0 | 0.00 | 0.00 | 0.00 | 37 | 1007.1 |
| 20260508221555 | 18 | 250 | 1.6 | 1.6 | 0.00 | 0.00 | 0.00 | 40 | 1007.1 |
| 20260508221051 | 18 | 262 | 3.2 | 4.8 | 0.00 | 0.00 | 0.00 | 38 | 1007.1 |
| 20260508220548 | 19 | 203 | 3.2 | 3.2 | 0.00 | 0.00 | 0.00 | 38 | 1007.3 |
| 20260508220044 | 18 | 245 | 4.8 | 4.8 | 0.00 | 0.00 | 0.00 | 39 | 1007.1 |
| 20260508215541 | 18 | 313 | 6.4 | 8.0 | 0.00 | 0.00 | 0.00 | 39 | 1007.3 |
| 20260508215038 | 18 | 275 | 4.8 | 4.8 | 0.00 | 0.00 | 0.00 | 40 | 1007.1 |
| 20260508214535 | 18 | 240 | 4.8 | 4.8 | 0.00 | 0.00 | 0.00 | 40 | 1007.1 |
| 20260508214031 | 18 | 198 | 4.8 | 4.8 | 0.00 | 0.00 | 0.00 | 43 | 1007.2 |
| 20260508213529 | 18 | 290 | 1.6 | 1.6 | 0.00 | 0.00 | 0.00 | 41 | 1007.2 |
| 20260508213024 | 18 | 49 | 3.2 | 3.2 | 0.00 | 0.00 | 0.00 | 38 | 1007.2 |
| 20260508212521 | 18 | 292 | 1.6 | 1.6 | 0.00 | 0.00 | 0.00 | 40 | 1007.3 |
| 20260508212018 | 18 | 304 | 4.8 | 4.8 | 0.00 | 0.00 | 0.00 | 39 | 1007.6 |
| 20260508211513 | 19 | 248 | 4.8 | 8.0 | 0.00 | 0.00 | 0.00 | 39 | 1007.5 |
| 20260508211010 | 18 | 281 | 4.8 | 4.8 | 0.00 | 0.00 | 0.00 | 43 | 1007.3 |
| 20260508210506 | 18 | 318 | 6.4 | 8.0 | 0.00 | 0.00 | 0.00 | 39 | 1007.6 |
| 20260508210004 | 18 | 325 | 4.8 | 4.8 | 0.00 | 0.00 | 0.00 | 39 | 1007.5 |
| 20260508205501 | 18 | 344 | 4.8 | 4.8 | 0.00 | 0.00 | 0.00 | 40 | 1007.3 |
| 20260508204956 | 18 | 334 | 6.4 | 9.7 | 0.00 | 0.00 | 0.00 | 37 | 1007.5 |
| 20260508204454 | 18 | 257 | 1.6 | 3.2 | 0.00 | 0.00 | 0.00 | 38 | 1007.6 |
| 20260508203949 | 18 | 271 | 1.6 | 3.2 | 0.00 | 0.00 | 0.00 | 36 | 1007.6 |
| 20260508203446 | 18 | 308 | 4.8 | 8.0 | 0.00 | 0.00 | 0.00 | 38 | 1007.7 |
| 20260508202941 | 18 | 317 | 1.6 | 3.2 | 0.00 | 0.00 | 0.00 | 41 | 1007.7 |
| 20260508202439 | 17 | 200 | 4.8 | 4.8 | 0.00 | 0.00 | 0.00 | 41 | 1007.7 |
| 20260508201936 | 17 | 199 | 1.6 | 1.6 | 0.00 | 0.00 | 0.00 | 43 | 1008.0 |
| 20260508201432 | 17 | 228 | 1.6 | 3.2 | 0.00 | 0.00 | 0.00 | 41 | 1008.0 |
| 20260508200929 | 17 | 266 | 1.6 | 3.2 | 0.00 | 0.00 | 0.00 | 40 | 1008.0 |
| 20260508200426 | 18 | 239 | 1.6 | 1.6 | 0.00 | 0.00 | 0.00 | 38 | 1008.1 |
| 20260508195921 | 18 | 173 | 3.2 | 4.8 | 0.00 | 0.00 | 0.00 | 37 | 1008.1 |
| 20260508195419 | 18 | 309 | 8.0 | 9.7 | 0.00 | 0.00 | 0.00 | 34 | 1008.3 |
| 20260508194914 | 18 | 341 | 4.8 | 4.8 | 0.00 | 0.00 | 0.00 | 36 | 1008.6 |
| 20260508194412 | 18 | 328 | 6.4 | 11.3 | 0.00 | 0.00 | 0.00 | 38 | 1008.6 |
| 20260508193909 | 17 | 127 | 3.2 | 3.2 | 0.00 | 0.00 | 0.00 | 40 | 1008.5 |
| 20260508193406 | 17 | 159 | 3.2 | 3.2 | 0.00 | 0.00 | 0.00 | 41 | 1008.8 |
| 20260508192902 | 17 | 322 | 8.0 | 11.3 | 0.00 | 0.00 | 0.00 | 41 | 1008.7 |
| 20260508192359 | 18 | 208 | 0.0 | 1.6 | 0.00 | 0.00 | 0.00 | 41 | 1008.6 |
| 20260508191856 | 19 | 181 | 3.2 | 3.2 | 0.00 | 0.00 | 0.00 | 41 | 1008.6 |
| 20260508191354 | 18 | 182 | 9.7 | 11.3 | 0.00 | 0.00 | 0.00 | 41 | 1008.9 |
| 20260508190850 | 17 | 212 | 1.6 | 1.6 | 0.00 | 0.00 | 0.00 | 45 | 1008.9 |
| 20260508190347 | 18 | 270 | 1.6 | 3.2 | 0.00 | 0.00 | 0.00 | 41 | 1009.1 |
| 20260508185843 | 18 | 256 | 4.8 | 4.8 | 0.00 | 0.00 | 0.00 | 40 | 1009.1 |
| 20260508185341 | 17 | 215 | 1.6 | 1.6 | 0.00 | 0.00 | 0.00 | 39 | 1009.0 |
| 20260508184838 | 17 | 347 | 4.8 | 4.8 | 0.00 | 0.00 | 0.00 | 41 | 1009.1 |
| 20260508184335 | 17 | 290 | 3.2 | 3.2 | 0.00 | 0.00 | 0.00 | 40 | 1009.3 |
| 20260508183832 | 17 | 316 | 3.2 | 3.2 | 0.00 | 0.00 | 0.00 | 43 | 1009.4 |
| 20260508183328 | 17 | 297 | 3.2 | 4.8 | 0.00 | 0.00 | 0.00 | 43 | 1009.6 |
| 20260508182824 | 16 | 314 | 6.4 | 9.7 | 0.00 | 0.00 | 0.00 | 42 | 1009.6 |
| 20260508182321 | 17 | 247 | 3.2 | 3.2 | 0.00 | 0.00 | 0.00 | 42 | 1009.5 |
| 20260508181817 | 17 | 166 | 3.2 | 3.2 | 0.00 | 0.00 | 0.00 | 41 | 1009.4 |
| 20260508181314 | 17 | 213 | 1.6 | 3.2 | 0.00 | 0.00 | 0.00 | 44 | 1009.8 |
| 20260508180811 | 17 | 267 | 3.2 | 4.8 | 0.00 | 0.00 | 0.00 | 43 | 1009.8 |
| 20260508180308 | 18 | 244 | 3.2 | 4.8 | 0.00 | 0.00 | 0.00 | 43 | 1009.9 |
| 20260508175804 | 17 | 48 | 1.6 | 1.6 | 0.00 | 0.00 | 0.00 | 42 | 1009.9 |
| 20260508175301 | 17 | 280 | 0.0 | 1.6 | 0.00 | 0.00 | 0.00 | 40 | 1009.9 |
| 20260508174759 | 17 | 238 | 1.6 | 3.2 | 0.00 | 0.00 | 0.00 | 43 | 1010.0 |
| 20260508174256 | 17 | 294 | 3.2 | 4.8 | 0.00 | 0.00 | 0.00 | 42 | 1010.0 |
| 20260508173752 | 16 | 4 | 3.2 | 3.2 | 0.00 | 0.00 | 0.00 | 38 | 1010.1 |
| 20260508173249 | 17 | 248 | 3.2 | 4.8 | 0.00 | 0.00 | 0.00 | 42 | 1010.0 |
| 20260508172745 | 17 | 203 | 1.6 | 3.2 | 0.00 | 0.00 | 0.00 | 42 | 1010.3 |
| 20260508172242 | 17 | 232 | 1.6 | 3.2 | 0.00 | 0.00 | 0.00 | 41 | 1010.4 |
| 20260508171738 | 17 | 288 | 0.0 | 1.6 | 0.00 | 0.00 | 0.00 | 43 | 1010.4 |
| 20260508171234 | 17 | 163 | 1.6 | 3.2 | 0.00 | 0.00 | 0.00 | 43 | 1010.4 |
| 20260508170732 | 16 | 214 | 1.6 | 3.2 | 0.00 | 0.00 | 0.00 | 45 | 1010.6 |
| 20260508170230 | 16 | 171 | 4.8 | 4.8 | 0.00 | 0.00 | 0.00 | 42 | 1010.8 |
| 20260508165726 | 16 | 232 | 3.2 | 4.8 | 0.00 | 0.00 | 0.00 | 44 | 1010.8 |
| 20260508165224 | 16 | 340 | 9.7 | 17.7 | 0.00 | 0.00 | 0.00 | 43 | 1011.1 |
| 20260508164720 | 16 | 278 | 1.6 | 3.2 | 0.00 | 0.00 | 0.00 | 42 | 1011.1 |
| 20260508164216 | 16 | 199 | 1.6 | 1.6 | 0.00 | 0.00 | 0.00 | 44 | 1011.2 |
| 20260508163714 | 15 | 239 | 0.0 | 0.0 | 0.00 | 0.00 | 0.00 | 45 | 1011.0 |
| 20260508163212 | 16 | 182 | 4.8 | 9.7 | 0.00 | 0.00 | 0.00 | 44 | 1011.3 |
| 20260508162707 | 15 | 192 | 0.0 | 1.6 | 0.00 | 0.00 | 0.00 | 47 | 1011.2 |
| 20260508162204 | 15 | 280 | 4.8 | 4.8 | 0.00 | 0.00 | 0.00 | 46 | 1011.2 |
| 20260508161702 | 15 | 184 | 3.2 | 3.2 | 0.00 | 0.00 | 0.00 | 49 | 1011.2 |
| 20260508161159 | 15 | 287 | 3.2 | 4.8 | 0.00 | 0.00 | 0.00 | 47 | 1011.2 |
| 20260508160657 | 15 | 304 | 1.6 | 1.6 | 0.00 | 0.00 | 0.00 | 51 | 1011.4 |
| 20260508160154 | 15 | 177 | 6.4 | 8.0 | 0.00 | 0.00 | 0.00 | 49 | 1011.3 |
| 20260508155651 | 16 | 171 | 0.0 | 1.6 | 0.00 | 0.00 | 0.00 | 48 | 1011.4 |
| 20260508155148 | 15 | 305 | 1.6 | 3.2 | 0.00 | 0.00 | 0.00 | 50 | 1011.4 |
| 20260508154645 | 14 | 185 | 0.0 | 0.0 | 0.00 | 0.00 | 0.00 | 51 | 1011.5 |
| 20260508154142 | 14 | 171 | 3.2 | 3.2 | 0.00 | 0.00 | 0.00 | 53 | 1011.7 |
| 20260508153638 | 13 | 185 | 0.0 | 1.6 | 0.00 | 0.00 | 0.00 | 53 | 1011.7 |
| 20260508153136 | 13 | 163 | 4.8 | 8.0 | 0.00 | 0.00 | 0.00 | 54 | 1011.5 |
| 20260508152632 | 13 | 265 | 1.6 | 1.6 | 0.00 | 0.00 | 0.00 | 55 | 1011.7 |
| 20260508152127 | 14 | 203 | 0.0 | 1.6 | 0.00 | 0.00 | 0.00 | 55 | 1011.5 |
| 20260508151625 | 14 | 157 | 6.4 | 8.0 | 0.00 | 0.00 | 0.00 | 53 | 1011.8 |
| 20260508151121 | 13 | 92 | 4.8 | 4.8 | 0.00 | 0.00 | 0.00 | 56 | 1011.8 |
| 20260508150618 | 13 | 189 | 1.6 | 1.6 | 0.00 | 0.00 | 0.00 | 55 | 1011.8 |
| 20260508150115 | 13 | 189 | 3.2 | 3.2 | 0.00 | 0.00 | 0.00 | 57 | 1011.9 |
| 20260508145611 | 12 | 281 | 1.6 | 1.6 | 0.00 | 0.00 | 0.00 | 60 | 1011.9 |
| 20260508145107 | 13 | 263 | 0.0 | 1.6 | 0.00 | 0.00 | 0.00 | 59 | 1011.9 |
| 20260508144605 | 12 | 308 | 3.2 | 4.8 | 0.00 | 0.00 | 0.00 | 59 | 1012.1 |
| 20260508144102 | 12 | 161 | 4.8 | 4.8 | 0.00 | 0.00 | 0.00 | 59 | 1012.2 |
| 20260508143600 | 12 | 318 | 1.6 | 1.6 | 0.00 | 0.00 | 0.00 | 59 | 1012.1 |
| 20260508143056 | 13 | 319 | 6.4 | 8.0 | 0.00 | 0.00 | 0.00 | 55 | 1012.0 |
| 20260508142553 | 12 | 193 | 1.6 | 1.6 | 0.00 | 0.00 | 0.00 | 62 | 1012.2 |
| 20260508142050 | 12 | 262 | 0.0 | 0.0 | 0.00 | 0.00 | 0.00 | 65 | 1012.3 |
| 20260508141546 | 12 | 183 | 3.2 | 3.2 | 0.00 | 0.00 | 0.00 | 67 | 1012.1 |
| 20260508141044 | 12 | 266 | 1.6 | 1.6 | 0.00 | 0.00 | 0.00 | 66 | 1012.2 |
| 20260508140541 | 11 | 327 | 0.0 | 1.6 | 0.00 | 0.00 | 0.00 | 70 | 1012.3 |
| 20260508140037 | 11 | 299 | 0.0 | 1.6 | 0.00 | 0.00 | 0.00 | 71 | 1012.5 |
| 20260508135533 | 11 | 286 | 1.6 | 3.2 | 0.00 | 0.00 | 0.00 | 70 | 1012.6 |
| 20260508135030 | 11 | 257 | 0.0 | 0.0 | 0.00 | 0.00 | 0.00 | 72 | 1012.6 |
| 20260508134526 | 11 | 293 | 3.2 | 3.2 | 0.00 | 0.00 | 0.00 | 75 | 1012.6 |
| 20260508134023 | 11 | 332 | 4.8 | 4.8 | 0.00 | 0.00 | 0.00 | 75 | 1012.5 |
| 20260508133520 | 10 | 90 | 0.0 | 0.0 | 0.00 | 0.00 | 0.00 | 78 | 1012.5 |
| 20260508133017 | 11 | 326 | 3.2 | 3.2 | 0.00 | 0.00 | 0.00 | 75 | 1012.4 |
| 20260508132515 | 11 | 224 | 1.6 | 1.6 | 0.00 | 0.00 | 0.00 | 78 | 1012.7 |
| 20260508132012 | 10 | 25 | 1.6 | 1.6 | 0.00 | 0.00 | 0.00 | 78 | 1012.3 |
| 20260508131507 | 11 | 154 | 0.0 | 0.0 | 0.00 | 0.00 | 0.00 | 78 | 1012.4 |
| 20260508131004 | 10 | 239 | 0.0 | 0.0 | 0.00 | 0.00 | 0.00 | 82 | 1012.5 |
| 20260508130501 | 10 | 185 | 0.0 | 1.6 | 0.00 | 0.00 | 0.00 | 84 | 1012.6 |
| 20260508125956 | 9 | 188 | 3.2 | 3.2 | 0.00 | 0.00 | 0.00 | 86 | 1012.5 |
| 20260508125453 | 8 | 331 | 1.6 | 3.2 | 0.00 | 0.00 | 0.00 | 88 | 1012.6 |
| 20260508124951 | 8 | 294 | 0.0 | 1.6 | 0.00 | 0.00 | 0.00 | 90 | 1012.5 |
| 20260508124448 | 8 | 200 | 0.0 | 0.0 | 0.00 | 0.00 | 0.00 | 92 | 1012.7 |
| 20260508123946 | 7 | 282 | 1.6 | 1.6 | 0.00 | 0.00 | 0.00 | 94 | 1012.5 |
| 20260508123444 | 7 | 254 | 0.0 | 1.6 | 0.00 | 0.00 | 0.00 | 95 | 1012.6 |
| 20260508122940 | 7 | 268 | 0.0 | 1.6 | 0.00 | 0.00 | 0.00 | 96 | 1012.6 |
| 20260508122437 | 7 | 311 | 1.6 | 1.6 | 0.00 | 0.00 | 0.00 | 97 | 1012.4 |
| 20260508121934 | 7 | 261 | 1.6 | 1.6 | 0.00 | 0.00 | 0.00 | 97 | 1012.4 |
| 20260508121433 | 6 | 233 | 0.0 | 0.0 | 0.00 | 0.00 | 0.00 | 97 | 1012.5 |
| 20260508120930 | 6 | 198 | 0.0 | 0.0 | 0.00 | 0.00 | 0.00 | 98 | 1012.3 |
| 20260508120428 | 6 | 273 | 0.0 | 1.6 | 0.00 | 0.00 | 0.00 | 98 | 1012.1 |
| 20260508115925 | 6 | 226 | 0.0 | 0.0 | 0.00 | 0.00 | 0.00 | 99 | 1012.1 |
| 20260508115423 | 5 | 226 | 0.0 | 0.0 | 0.00 | 0.00 | 0.00 | 98 | 1012.1 |
| 20260508114919 | 5 | 226 | 0.0 | 0.0 | 0.00 | 0.00 | 0.00 | 98 | 1012.1 |
| 20260508114416 | 4 | 226 | 0.0 | 0.0 | 0.00 | 0.00 | 0.00 | 98 | 1011.9 |
| 20260508113912 | 3 | 227 | 0.0 | 0.0 | 0.00 | 0.00 | 0.00 | 98 | 1012.1 |
| 20260508113411 | 3 | 227 | 0.0 | 0.0 | 0.00 | 0.00 | 0.00 | 98 | 1011.9 |
| 20260508112908 | 3 | 227 | 0.0 | 0.0 | 0.00 | 0.00 | 0.00 | 98 | 1011.8 |
| 20260508112404 | 2 | 227 | 0.0 | 0.0 | 0.00 | 0.00 | 0.00 | 98 | 1012.0 |
| 20260508111901 | 2 | 227 | 0.0 | 0.0 | 0.00 | 0.00 | 0.00 | 98 | 1011.7 |
| 20260508111358 | 2 | 227 | 0.0 | 0.0 | 0.00 | 0.00 | 0.00 | 98 | 1011.8 |
| 20260508110855 | 2 | 227 | 0.0 | 0.0 | 0.00 | 0.00 | 0.00 | 98 | 1011.8 |
| 20260508110353 | 2 | 227 | 0.0 | 0.0 | 0.00 | 0.00 | 0.00 | 98 | 1011.7 |
| 20260508105852 | 2 | 227 | 0.0 | 0.0 | 0.00 | 0.00 | 0.00 | 98 | 1011.7 |
| 20260508105349 | 2 | 226 | 0.0 | 0.0 | 0.00 | 0.00 | 0.00 | 98 | 1011.4 |
| 20260508104846 | 1 | 226 | 0.0 | 0.0 | 0.00 | 0.00 | 0.00 | 98 | 1011.4 |
| 20260508104343 | 1 | 226 | 0.0 | 0.0 | 0.00 | 0.00 | 0.00 | 98 | 1011.4 |
| 20260508103841 | 1 | 226 | 0.0 | 0.0 | 0.00 | 0.00 | 0.00 | 97 | 1011.5 |
| 20260508103337 | 2 | 226 | 0.0 | 0.0 | 0.00 | 0.00 | 0.00 | 97 | 1011.5 |
| 20260508102835 | 2 | 226 | 0.0 | 0.0 | 0.00 | 0.00 | 0.00 | 98 | 1011.5 |
| 20260508102333 | 2 | 226 | 0.0 | 0.0 | 0.00 | 0.00 | 0.00 | 97 | 1011.3 |
| 20260508101830 | 2 | 226 | 0.0 | 0.0 | 0.00 | 0.00 | 0.00 | 98 | 1011.4 |
| 20260508101327 | 2 | 226 | 0.0 | 0.0 | 0.00 | 0.00 | 0.00 | 97 | 1011.5 |
| 20260508100824 | 2 | 226 | 0.0 | 0.0 | 0.00 | 0.00 | 0.00 | 97 | 1011.5 |
| 20260508100323 | 2 | 226 | 0.0 | 0.0 | 0.00 | 0.00 | 0.00 | 97 | 1011.3 |
| 20260508095818 | 2 | 226 | 0.0 | 0.0 | 0.00 | 0.00 | 0.00 | 97 | 1011.3 |
| 20260508095316 | 2 | 226 | 0.0 | 0.0 | 0.00 | 0.00 | 0.00 | 97 | 1011.6 |
| 20260508094813 | 2 | 226 | 0.0 | 0.0 | 0.00 | 0.00 | 0.00 | 97 | 1011.5 |
| 20260508094310 | 2 | 226 | 0.0 | 0.0 | 0.00 | 0.00 | 0.00 | 97 | 1011.6 |
| 20260508093807 | 2 | 226 | 0.0 | 0.0 | 0.00 | 0.00 | 0.00 | 97 | 1011.5 |
| 20260508093304 | 2 | 226 | 0.0 | 0.0 | 0.00 | 0.00 | 0.00 | 97 | 1011.5 |
| 20260508092801 | 2 | 226 | 0.0 | 0.0 | 0.00 | 0.00 | 0.00 | 97 | 1011.5 |
| 20260508092259 | 2 | 226 | 0.0 | 0.0 | 0.00 | 0.00 | 0.00 | 97 | 1011.3 |
| 20260508091757 | 2 | 226 | 0.0 | 0.0 | 0.00 | 0.00 | 0.00 | 97 | 1011.3 |
| 20260508091254 | 2 | 226 | 0.0 | 0.0 | 0.00 | 0.00 | 0.00 | 97 | 1011.4 |
| 20260508090751 | 2 | 226 | 0.0 | 0.0 | 0.00 | 0.00 | 0.00 | 97 | 1011.4 |
| 20260508090249 | 2 | 226 | 0.0 | 0.0 | 0.00 | 0.00 | 0.00 | 97 | 1011.5 |
| 20260508085745 | 2 | 226 | 0.0 | 0.0 | 0.00 | 0.00 | 0.00 | 97 | 1011.4 |
| 20260508085242 | 2 | 226 | 0.0 | 0.0 | 0.00 | 0.00 | 0.00 | 97 | 1011.4 |
| 20260508084737 | 2 | 226 | 0.0 | 0.0 | 0.00 | 0.00 | 0.00 | 97 | 1011.4 |
| 20260508084235 | 2 | 226 | 0.0 | 0.0 | 0.00 | 0.00 | 0.00 | 97 | 1011.6 |
| 20260508083733 | 2 | 227 | 0.0 | 0.0 | 0.00 | 0.00 | 0.00 | 97 | 1011.6 |
| 20260508083230 | 2 | 227 | 0.0 | 0.0 | 0.00 | 0.00 | 0.00 | 97 | 1011.6 |
| 20260508082725 | 3 | 227 | 0.0 | 0.0 | 0.00 | 0.00 | 0.00 | 97 | 1011.6 |
| 20260508082223 | 3 | 227 | 0.0 | 0.0 | 0.00 | 0.00 | 0.00 | 97 | 1011.5 |
| 20260508081720 | 3 | 227 | 0.0 | 0.0 | 0.00 | 0.00 | 0.00 | 97 | 1011.5 |
| 20260508081217 | 3 | 227 | 0.0 | 0.0 | 0.00 | 0.00 | 0.00 | 97 | 1011.8 |
| 20260508080714 | 3 | 227 | 0.0 | 0.0 | 0.00 | 0.00 | 0.00 | 97 | 1011.7 |
| 20260508080212 | 3 | 227 | 0.0 | 0.0 | 0.00 | 0.00 | 0.00 | 97 | 1011.8 |
| 20260508075708 | 3 | 227 | 0.0 | 0.0 | 0.00 | 0.00 | 0.00 | 96 | 1011.8 |
| 20260508075205 | 3 | 227 | 0.0 | 0.0 | 0.00 | 0.00 | 0.00 | 96 | 1011.6 |
| 20260508074703 | 3 | 227 | 0.0 | 0.0 | 0.00 | 0.00 | 0.00 | 96 | 1011.8 |
| 20260508074200 | 3 | 227 | 0.0 | 0.0 | 0.00 | 0.00 | 0.00 | 96 | 1011.9 |
| 20260508073657 | 3 | 227 | 0.0 | 0.0 | 0.00 | 0.00 | 0.00 | 96 | 1011.7 |
| 20260508073155 | 3 | 227 | 0.0 | 0.0 | 0.00 | 0.00 | 0.00 | 96 | 1011.8 |
| 20260508072650 | 3 | 227 | 0.0 | 0.0 | 0.00 | 0.00 | 0.00 | 96 | 1012.0 |
| 20260508072148 | 3 | 227 | 0.0 | 0.0 | 0.00 | 0.00 | 0.00 | 96 | 1012.0 |
| 20260508071645 | 3 | 227 | 0.0 | 0.0 | 0.00 | 0.00 | 0.00 | 96 | 1012.0 |
| 20260508071143 | 3 | 227 | 0.0 | 0.0 | 0.00 | 0.00 | 0.00 | 96 | 1012.1 |
| 20260508070640 | 3 | 227 | 0.0 | 0.0 | 0.00 | 0.00 | 0.00 | 96 | 1012.2 |
| 20260508070139 | 3 | 227 | 0.0 | 0.0 | 0.00 | 0.00 | 0.00 | 96 | 1012.3 |
| 20260508065636 | 3 | 227 | 0.0 | 0.0 | 0.00 | 0.00 | 0.00 | 96 | 1012.4 |
| 20260508065134 | 3 | 227 | 0.0 | 0.0 | 0.00 | 0.00 | 0.00 | 95 | 1012.3 |
| 20260508064631 | 3 | 227 | 0.0 | 0.0 | 0.00 | 0.00 | 0.00 | 95 | 1012.4 |
| 20260508064129 | 3 | 227 | 0.0 | 0.0 | 0.00 | 0.00 | 0.00 | 95 | 1012.3 |
| 20260508063626 | 3 | 227 | 0.0 | 0.0 | 0.00 | 0.00 | 0.00 | 95 | 1012.6 |
| 20260508063124 | 3 | 227 | 0.0 | 0.0 | 0.00 | 0.00 | 0.00 | 95 | 1012.4 |
| 20260508062621 | 3 | 227 | 0.0 | 0.0 | 0.00 | 0.00 | 0.00 | 95 | 1012.5 |
| 20260508062118 | 3 | 227 | 0.0 | 0.0 | 0.00 | 0.00 | 0.00 | 94 | 1012.3 |
| 20260508061615 | 3 | 227 | 0.0 | 0.0 | 0.00 | 0.00 | 0.00 | 94 | 1012.3 |
| 20260508061113 | 3 | 227 | 0.0 | 0.0 | 0.00 | 0.00 | 0.00 | 94 | 1012.5 |
| 20260508060609 | 3 | 227 | 0.0 | 0.0 | 0.00 | 0.00 | 0.00 | 94 | 1012.2 |
| 20260508060107 | 3 | 227 | 0.0 | 0.0 | 0.00 | 0.00 | 0.00 | 94 | 1012.3 |
| 20260508055602 | 3 | 227 | 0.0 | 0.0 | 0.00 | 0.00 | 0.00 | 94 | 1012.1 |
| 20260508055059 | 4 | 227 | 0.0 | 0.0 | 0.00 | 0.00 | 0.00 | 94 | 1012.3 |
| 20260508054555 | 4 | 227 | 0.0 | 0.0 | 0.00 | 0.00 | 0.00 | 94 | 1012.2 |
| 20260508054053 | 4 | 227 | 0.0 | 0.0 | 0.00 | 0.00 | 0.00 | 94 | 1012.4 |
| 20260508053549 | 4 | 227 | 0.0 | 0.0 | 0.00 | 0.00 | 0.00 | 94 | 1012.3 |
| 20260508053048 | 4 | 227 | 0.0 | 0.0 | 0.00 | 0.00 | 0.00 | 94 | 1012.1 |
| 20260508052545 | 4 | 227 | 0.0 | 0.0 | 0.00 | 0.00 | 0.00 | 94 | 1012.1 |
| 20260508052041 | 4 | 227 | 0.0 | 0.0 | 0.00 | 0.00 | 0.00 | 94 | 1012.0 |
| 20260508051538 | 4 | 227 | 0.0 | 0.0 | 0.00 | 0.00 | 0.00 | 94 | 1012.1 |
| 20260508051033 | 5 | 227 | 0.0 | 0.0 | 0.00 | 0.00 | 0.00 | 94 | 1012.0 |
| 20260508050530 | 5 | 227 | 0.0 | 0.0 | 0.00 | 0.00 | 0.00 | 94 | 1012.2 |
| 20260508050027 | 5 | 226 | 0.0 | 0.0 | 0.00 | 0.00 | 0.00 | 94 | 1012.2 |
| 20260508045523 | 5 | 227 | 0.0 | 0.0 | 0.00 | 0.00 | 0.00 | 93 | 1012.2 |
| 20260508045021 | 5 | 227 | 0.0 | 0.0 | 0.00 | 0.00 | 0.00 | 93 | 1012.1 |
| 20260508044518 | 5 | 227 | 0.0 | 0.0 | 0.00 | 0.00 | 0.00 | 93 | 1012.1 |
| 20260508044014 | 4 | 227 | 0.0 | 0.0 | 0.00 | 0.00 | 0.00 | 93 | 1012.0 |
| 20260508043511 | 4 | 227 | 0.0 | 0.0 | 0.00 | 0.00 | 0.00 | 93 | 1012.1 |
| 20260508043008 | 4 | 226 | 0.0 | 0.0 | 0.00 | 0.00 | 0.00 | 93 | 1011.9 |
| 20260508042505 | 4 | 226 | 0.0 | 0.0 | 0.00 | 0.00 | 0.00 | 92 | 1012.0 |
| 20260508042002 | 4 | 227 | 0.0 | 0.0 | 0.00 | 0.00 | 0.00 | 92 | 1012.1 |
| 20260508041458 | 4 | 227 | 0.0 | 0.0 | 0.00 | 0.00 | 0.00 | 92 | 1011.9 |
| 20260508040955 | 4 | 227 | 0.0 | 0.0 | 0.00 | 0.00 | 0.00 | 92 | 1012.1 |
| 20260508040452 | 4 | 227 | 0.0 | 0.0 | 0.00 | 0.00 | 0.00 | 91 | 1012.0 |
| 20260508035950 | 4 | 226 | 0.0 | 0.0 | 0.00 | 0.00 | 0.00 | 91 | 1012.1 |
| 20260508035446 | 4 | 227 | 0.0 | 0.0 | 0.00 | 0.00 | 0.00 | 91 | 1011.9 |
| 20260508034943 | 4 | 226 | 0.0 | 0.0 | 0.00 | 0.00 | 0.00 | 90 | 1012.2 |
| 20260508034441 | 5 | 227 | 0.0 | 0.0 | 0.00 | 0.00 | 0.00 | 89 | 1012.1 |
| 20260508033937 | 5 | 227 | 0.0 | 0.0 | 0.00 | 0.00 | 0.00 | 89 | 1012.0 |
| 20260508033435 | 5 | 226 | 0.0 | 0.0 | 0.00 | 0.00 | 0.00 | 89 | 1011.8 |
| 20260508032932 | 5 | 227 | 0.0 | 0.0 | 0.00 | 0.00 | 0.00 | 88 | 1012.1 |
| 20260508032430 | 5 | 226 | 0.0 | 0.0 | 0.00 | 0.00 | 0.00 | 88 | 1012.1 |
| 20260508031926 | 5 | 226 | 0.0 | 0.0 | 0.00 | 0.00 | 0.00 | 88 | 1012.0 |
| 20260508031424 | 6 | 226 | 0.0 | 0.0 | 0.00 | 0.00 | 0.00 | 87 | 1012.1 |
| 20260508030919 | 6 | 226 | 0.0 | 0.0 | 0.00 | 0.00 | 0.00 | 86 | 1012.1 |
| 20260508030417 | 6 | 226 | 0.0 | 0.0 | 0.00 | 0.00 | 0.00 | 86 | 1012.0 |
| 20260508025914 | 6 | 227 | 0.0 | 0.0 | 0.00 | 0.00 | 0.00 | 85 | 1012.1 |
| 20260508025410 | 6 | 227 | 0.0 | 0.0 | 0.00 | 0.00 | 0.00 | 85 | 1012.1 |
| 20260508024907 | 6 | 226 | 0.0 | 0.0 | 0.00 | 0.00 | 0.00 | 84 | 1012.2 |
| 20260508024404 | 7 | 226 | 0.0 | 0.0 | 0.00 | 0.00 | 0.00 | 83 | 1012.3 |
| 20260508023900 | 7 | 226 | 0.0 | 0.0 | 0.00 | 0.00 | 0.00 | 82 | 1012.0 |
| 20260508023357 | 7 | 223 | 1.6 | 1.6 | 0.00 | 0.00 | 0.00 | 81 | 1012.0 |
| 20260508022854 | 7 | 218 | 0.0 | 0.0 | 0.00 | 0.00 | 0.00 | 80 | 1012.1 |
| 20260508022350 | 7 | 229 | 0.0 | 0.0 | 0.00 | 0.00 | 0.00 | 79 | 1012.1 |
| 20260508021847 | 7 | 209 | 0.0 | 1.6 | 0.00 | 0.00 | 0.00 | 79 | 1011.9 |
| 20260508021343 | 7 | 195 | 0.0 | 1.6 | 0.00 | 0.00 | 0.00 | 78 | 1011.8 |
| 20260508020839 | 7 | 191 | 0.0 | 0.0 | 0.00 | 0.00 | 0.00 | 78 | 1011.9 |
| 20260508020337 | 7 | 205 | 0.0 | 0.0 | 0.00 | 0.00 | 0.00 | 79 | 1012.0 |
| 20260508015834 | 7 | 196 | 0.0 | 1.6 | 0.00 | 0.00 | 0.00 | 79 | 1011.9 |
| 20260508015332 | 7 | 204 | 0.0 | 1.6 | 0.00 | 0.00 | 0.00 | 79 | 1011.7 |
| 20260508014828 | 7 | 194 | 1.6 | 1.6 | 0.00 | 0.00 | 0.00 | 78 | 1011.7 |
| 20260508014325 | 7 | 198 | 0.0 | 1.6 | 0.00 | 0.00 | 0.00 | 77 | 1012.0 |
| 20260508013820 | 7 | 204 | 0.0 | 1.6 | 0.00 | 0.00 | 0.00 | 77 | 1011.8 |
| 20260508013317 | 7 | 251 | 0.0 | 0.0 | 0.00 | 0.00 | 0.00 | 76 | 1011.4 |
| 20260508012815 | 8 | 251 | 0.0 | 0.0 | 0.00 | 0.00 | 0.00 | 76 | 1011.5 |
| 20260508012312 | 8 | 252 | 1.6 | 1.6 | 0.00 | 0.00 | 0.00 | 74 | 1011.5 |
| 20260508011809 | 8 | 253 | 1.6 | 1.6 | 0.00 | 0.00 | 0.00 | 73 | 1011.7 |
| 20260508011307 | 8 | 253 | 0.0 | 0.0 | 0.00 | 0.00 | 0.00 | 72 | 1011.9 |
| 20260508010804 | 9 | 253 | 1.6 | 1.6 | 0.00 | 0.00 | 0.00 | 70 | 1011.8 |
| 20260508010302 | 9 | 254 | 1.6 | 1.6 | 0.00 | 0.00 | 0.00 | 69 | 1011.8 |
| 20260508005758 | 9 | 205 | 1.6 | 1.6 | 0.00 | 0.00 | 0.00 | 68 | 1011.9 |
| 20260508005255 | 10 | 184 | 3.2 | 3.2 | 0.00 | 0.00 | 0.00 | 66 | 1011.9 |
| 20260508004750 | 10 | 261 | 0.0 | 0.0 | 0.00 | 0.00 | 0.00 | 65 | 1012.0 |
| 20260508004247 | 10 | 257 | 1.6 | 1.6 | 0.00 | 0.00 | 0.00 | 63 | 1011.9 |
| 20260508003744 | 10 | 262 | 1.6 | 1.6 | 0.00 | 0.00 | 0.00 | 63 | 1011.7 |
| 20260508003242 | 10 | 338 | 4.8 | 4.8 | 0.00 | 0.00 | 0.00 | 62 | 1011.9 |
| 20260508002737 | 10 | 267 | 0.0 | 1.6 | 0.00 | 0.00 | 0.00 | 62 | 1011.6 |
| 20260508002235 | 10 | 286 | 0.0 | 1.6 | 0.00 | 0.00 | 0.00 | 61 | 1011.8 |
| 20260508001731 | 10 | 287 | 0.0 | 0.0 | 0.00 | 0.00 | 0.00 | 60 | 1011.5 |
| 20260508001226 | 10 | 278 | 4.8 | 4.8 | 0.00 | 0.00 | 0.00 | 59 | 1011.5 |